Weather in Kamenskiy

Russia / Saratov Oblast     50°53′10″N   45°29′14″E
temp.,
°C
wind,
m/s
gust,
m/s
humid.,
%
clouds,
%
prec.,
mm/h
press.,
hPa
HPBL,
m
20 june, sun
sun2001:00+16ne22710 0.0 102413
04:00+15ne22730 0.0 102414
07:00+18ne24710 0.0 1024112
10:00+23e34540 0.0 1024497
13:00+26e44440 0.0 1023893
16:00+27e33410 0.0 10221090
19:00+25ne33570 0.0 1022125
22:00+20ne33604 0.0 102221
21 june, mon
mon2101:00+19ene33645 0.0 102227
04:00+18e337352 0.0 102233
07:00+20e36745 0.0 1022158
10:00+25e4558100 0.0 1022486
13:00+28e4447100 0.0 1022947
16:00+29ene33415 0.0 10211351
19:00+27ne34600 0.0 1021153
22:00+22ne33670 0.0 102121
22 june, tue
tue2201:00+21ene34741 0.0 102151
04:00+19ene35810 0.0 102170
07:00+21ne367823 0.0 1022141
10:00+26ene566095 0.0 1022425
13:00+30ese563947 0.0 1021910
16:00+32ese46340 0.0 10201611
19:00+29ne46550 0.0 1020145
22:00+24e36635 0.0 102076
23 june, wed
wed2301:00+23ese35575 0.0 102174
04:00+22e345480 0.0 102150
07:00+23e36614 0.0 1021123
10:00+28e574614 0.0 1021376
13:00+31ese56378 0.0 1021869
16:00+32ese4434100 0.0 10201548
19:00+30e345166 0.0 1020104
22:00+25ese225381 0.0 102012
24 june, thu
thu2401:00+24e225594 0.0 102012
04:00+22ene336555 0.0 102023
07:00+24e22675 0.0 102183
10:00+29ese22505 0.0 1020523
13:00+32ene11395 0.0 10201734
16:00+32ne33416 0.0 10192155
19:00+30ene345615 0.0 1018248
22:00+26ene225933 0.0 101820